LNR50FB VGHS-OPKC

Flight info

Callsign LNR50FB
Flight time 3h 42m
Altitude 32000
Route IKOGU1A IKOGU A462 CEA A791 PRA A325 KE
Aircraft B738/M-SDE2E3FGHIRWXY/LB1

Departure

Time 2026-04-21 08:40
Airport Hazrat Shahjalal International Airport (VGHS)

Arrival

Time 2026-04-21 12:22
Airport Jinnah International Airport (OPKC)
Time Latitude Longitude Altitude Speed Heading
2026-04-21 08:15 23.84738 90.40434 33 ft 0 kts 54°
2026-04-21 08:31 23.84725 90.40415 35 ft 4 kts 48°
2026-04-21 08:31 23.84706 90.40395 32 ft 4 kts 36°
2026-04-21 08:31 23.84683 90.40380 32 ft 4 kts 16°
2026-04-21 08:32 23.84658 90.40378 33 ft 4 kts 332°
2026-04-21 08:32 23.84653 90.40381 34 ft 1 kts 324°
2026-04-21 08:33 23.84665 90.40372 34 ft 5 kts 324°
2026-04-21 08:34 23.84692 90.40336 35 ft 7 kts 284°
2026-04-21 08:34 23.84675 90.40287 35 ft 7 kts 237°
2026-04-21 08:34 23.84646 90.40240 34 ft 8 kts 251°
2026-04-21 08:34 23.84672 90.40180 35 ft 12 kts 323°
2026-04-21 08:35 23.84751 90.40118 35 ft 16 kts 324°
2026-04-21 08:35 23.84842 90.40046 35 ft 16 kts 324°
2026-04-21 08:35 23.84934 90.39971 35 ft 16 kts 322°
2026-04-21 08:35 23.85021 90.39897 34 ft 16 kts 322°
2026-04-21 08:36 23.85109 90.39832 35 ft 15 kts 324°
2026-04-21 08:36 23.85192 90.39767 34 ft 14 kts 324°
2026-04-21 08:36 23.85271 90.39705 35 ft 14 kts 324°
2026-04-21 08:36 23.85346 90.39645 35 ft 14 kts 323°
2026-04-21 08:37 23.85426 90.39581 35 ft 14 kts 324°
2026-04-21 08:37 23.85510 90.39515 34 ft 16 kts 324°
2026-04-21 08:37 23.85609 90.39438 35 ft 18 kts 324°
2026-04-21 08:37 23.85716 90.39353 35 ft 19 kts 324°
2026-04-21 08:38 23.85751 90.39246 33 ft 17 kts 237°
2026-04-21 08:38 23.85684 90.39146 33 ft 16 kts 233°
2026-04-21 08:38 23.85619 90.39048 34 ft 15 kts 234°
2026-04-21 08:38 23.85557 90.38956 34 ft 15 kts 233°
2026-04-21 08:39 23.85486 90.38888 34 ft 13 kts 184°
2026-04-21 08:39 23.85442 90.38900 34 ft 0 kts 146°
2026-04-21 08:39 23.85434 90.38906 34 ft 5 kts 146°
2026-04-21 08:39 23.85234 90.39065 33 ft 70 kts 144°
2026-04-21 08:40 23.84661 90.39521 36 ft 131 kts 143°
2026-04-21 08:40 23.83803 90.40202 234 ft 164 kts 145°
2026-04-21 08:40 23.82879 90.40959 943 ft 171 kts 144°
2026-04-21 08:40 23.81898 90.41716 1620 ft 178 kts 150°
2026-04-21 08:41 23.80836 90.42515 1990 ft 200 kts 146°
2026-04-21 08:41 23.79566 90.43337 2166 ft 218 kts 168°
2026-04-21 08:41 23.78043 90.43259 2447 ft 228 kts 201°
2026-04-21 08:41 23.76652 90.42309 2653 ft 250 kts 226°
2026-04-21 08:42 23.75768 90.40657 3219 ft 259 kts 251°
2026-04-21 08:42 23.75515 90.38705 4015 ft 257 kts 265°
2026-04-21 08:42 23.75433 90.36772 4867 ft 255 kts 268°
2026-04-21 08:42 23.75345 90.34837 5611 ft 256 kts 267°
2026-04-21 08:43 23.75231 90.32874 6220 ft 262 kts 267°
2026-04-21 08:43 23.75104 90.30869 6797 ft 267 kts 267°
2026-04-21 08:43 23.74815 90.28879 7524 ft 269 kts 251°
2026-04-21 08:43 23.73898 90.27067 8116 ft 276 kts 241°
2026-04-21 08:44 23.72868 90.25321 8782 ft 278 kts 240°
2026-04-21 08:44 23.71759 90.23571 9485 ft 280 kts 239°
2026-04-21 08:44 23.70635 90.21813 10034 ft 288 kts 239°
2026-04-21 08:44 23.69458 90.19945 10174 ft 309 kts 240°
2026-04-21 08:45 23.68211 90.17942 10322 ft 328 kts 240°
2026-04-21 08:45 23.66905 90.15831 10591 ft 341 kts 240°
2026-04-21 08:45 23.65570 90.13665 11089 ft 345 kts 240°
2026-04-21 08:45 23.64231 90.11490 11740 ft 346 kts 240°
2026-04-21 08:46 23.62893 90.09308 12393 ft 347 kts 240°
2026-04-21 08:46 23.61550 90.07117 13034 ft 349 kts 240°
2026-04-21 08:46 23.60196 90.04910 13672 ft 351 kts 240°
2026-04-21 08:46 23.58875 90.02664 14232 ft 353 kts 242°
2026-04-21 08:47 23.57597 90.00366 14790 ft 356 kts 242°
2026-04-21 08:47 23.56381 89.98144 15327 ft 359 kts 242°
2026-04-21 08:47 23.55096 89.95795 15891 ft 362 kts 241°
2026-04-21 08:47 23.54238 89.94234 16258 ft 364 kts 241°
2026-04-21 08:48 23.52929 89.91861 16804 ft 367 kts 241°
2026-04-21 08:48 23.51606 89.89472 17347 ft 370 kts 240°
2026-04-21 08:48 23.50267 89.87061 17876 ft 373 kts 240°
2026-04-21 08:48 23.48918 89.84635 18344 ft 376 kts 240°
2026-04-21 08:49 23.47563 89.82202 18841 ft 376 kts 240°
2026-04-21 08:49 23.46202 89.79760 19357 ft 377 kts 240°
2026-04-21 08:49 23.44840 89.77317 19843 ft 378 kts 240°
2026-04-21 08:49 23.43468 89.74856 20302 ft 380 kts 240°
2026-04-21 08:50 23.42092 89.72389 20720 ft 383 kts 240°
2026-04-21 08:50 23.40704 89.69901 21137 ft 385 kts 240°
2026-04-21 08:50 23.39310 89.67406 21594 ft 386 kts 240°
2026-04-21 08:50 23.37913 89.64906 22050 ft 387 kts 240°
2026-04-21 08:51 23.36480 89.62415 22483 ft 389 kts 238°
2026-04-21 08:51 23.35005 89.59940 22894 ft 391 kts 238°
2026-04-21 08:51 23.33510 89.57463 23292 ft 392 kts 238°
2026-04-21 08:51 23.32024 89.55003 23623 ft 394 kts 238°
2026-04-21 08:52 23.30520 89.52510 23939 ft 395 kts 238°
2026-04-21 08:52 23.29013 89.50006 24270 ft 396 kts 238°
2026-04-21 08:52 23.27502 89.47492 24595 ft 398 kts 238°
2026-04-21 08:52 23.25988 89.44969 24909 ft 399 kts 238°
2026-04-21 08:53 23.24468 89.42436 25219 ft 401 kts 238°
2026-04-21 08:53 23.22945 89.39897 25623 ft 399 kts 238°
2026-04-21 08:53 23.21434 89.37381 26100 ft 396 kts 238°
2026-04-21 08:53 23.19934 89.34883 26609 ft 393 kts 238°
2026-04-21 08:54 23.18439 89.32396 27057 ft 391 kts 238°
2026-04-21 08:54 23.16952 89.29922 27490 ft 390 kts 238°
2026-04-21 08:54 23.15467 89.27453 27946 ft 389 kts 238°
2026-04-21 08:54 23.13991 89.24999 28443 ft 386 kts 238°
2026-04-21 08:55 23.12524 89.22562 28924 ft 385 kts 239°
2026-04-21 08:55 23.11062 89.20136 29379 ft 383 kts 239°
2026-04-21 08:55 23.09605 89.17717 29809 ft 382 kts 239°
2026-04-21 08:55 23.08170 89.15336 30209 ft 380 kts 239°
2026-04-21 08:56 23.06733 89.12954 30704 ft 375 kts 239°
2026-04-21 08:56 23.05315 89.10605 31231 ft 370 kts 239°
2026-04-21 08:56 23.03912 89.08280 31646 ft 368 kts 239°
2026-04-21 08:57 23.01105 89.03632 31693 ft 365 kts 239°
2026-04-21 08:57 22.98373 88.99111 31698 ft 368 kts 239°
2026-04-21 08:58 22.95551 88.94445 31699 ft 371 kts 239°
2026-04-21 08:58 22.92712 88.89758 31695 ft 372 kts 239°
2026-04-21 08:59 22.90001 88.84984 31706 ft 371 kts 241°
2026-04-21 08:59 22.87352 88.80169 31692 ft 371 kts 241°
2026-04-21 09:00 22.84701 88.75380 31686 ft 369 kts 241°
2026-04-21 09:00 22.82053 88.70627 31694 ft 367 kts 240°
2026-04-21 09:01 22.79412 88.65899 31695 ft 366 kts 240°
2026-04-21 09:01 22.76774 88.61180 31676 ft 365 kts 240°
2026-04-21 09:02 22.74161 88.56510 31688 ft 364 kts 240°
2026-04-21 09:02 22.71537 88.51823 31694 ft 364 kts 240°
2026-04-21 09:03 22.68365 88.44424 31706 ft 364 kts 256°
2026-04-21 09:03 22.67931 88.38952 31698 ft 369 kts 270°
2026-04-21 09:04 22.68315 88.33399 31697 ft 371 kts 271°
2026-04-21 09:04 22.68710 88.27854 31694 ft 372 kts 271°
2026-04-21 09:05 22.69094 88.22257 31691 ft 373 kts 270°
2026-04-21 09:05 22.69468 88.16642 31689 ft 374 kts 270°
2026-04-21 09:06 22.69837 88.11025 31686 ft 374 kts 270°
2026-04-21 09:06 22.70203 88.05407 31689 ft 374 kts 271°
2026-04-21 09:07 22.70561 87.99876 31677 ft 373 kts 271°
2026-04-21 09:07 22.70921 87.94305 31678 ft 372 kts 271°
2026-04-21 09:08 22.71278 87.88724 31678 ft 371 kts 271°
2026-04-21 09:08 22.71633 87.83154 31677 ft 370 kts 271°
2026-04-21 09:09 22.71983 87.77624 31675 ft 370 kts 270°
2026-04-21 09:09 22.72333 87.72064 31675 ft 370 kts 270°
2026-04-21 09:10 22.72682 87.66502 31676 ft 370 kts 270°
2026-04-21 09:10 22.73028 87.60942 31676 ft 370 kts 270°
2026-04-21 09:11 22.73373 87.55379 31676 ft 370 kts 270°
2026-04-21 09:11 22.73715 87.49812 31678 ft 370 kts 270°
2026-04-21 09:12 22.74057 87.44241 31677 ft 371 kts 270°
2026-04-21 09:12 22.74396 87.38662 31683 ft 371 kts 270°
2026-04-21 09:13 22.74732 87.33123 31678 ft 371 kts 270°
2026-04-21 09:13 22.75068 87.27543 31675 ft 371 kts 270°
2026-04-21 09:14 22.75402 87.21962 31678 ft 371 kts 270°
2026-04-21 09:14 22.75734 87.16382 31689 ft 371 kts 270°
2026-04-21 09:15 22.76064 87.10792 31680 ft 372 kts 270°
2026-04-21 09:15 22.76393 87.05204 31694 ft 372 kts 270°
2026-04-21 09:16 22.76714 86.99712 31698 ft 372 kts 270°
2026-04-21 09:16 22.77039 86.94117 31708 ft 372 kts 269°
2026-04-21 09:17 22.77362 86.88533 31708 ft 371 kts 269°
2026-04-21 09:17 22.77683 86.82946 31708 ft 371 kts 269°
2026-04-21 09:18 22.78001 86.77364 31718 ft 371 kts 269°
2026-04-21 09:18 22.78317 86.71792 31717 ft 370 kts 269°
2026-04-21 09:19 22.78629 86.66258 31717 ft 370 kts 269°
2026-04-21 09:19 22.78941 86.60695 31734 ft 370 kts 269°
2026-04-21 09:20 22.79250 86.55134 31743 ft 370 kts 270°
2026-04-21 09:20 22.79558 86.49566 31731 ft 371 kts 270°
2026-04-21 09:21 22.79865 86.43987 31740 ft 370 kts 270°
2026-04-21 09:21 22.80168 86.38417 31738 ft 370 kts 269°
2026-04-21 09:22 22.80471 86.32849 31752 ft 370 kts 269°
2026-04-21 09:22 22.80772 86.27279 31755 ft 370 kts 269°
2026-04-21 09:23 22.81071 86.21712 31690 ft 370 kts 269°
2026-04-21 09:23 22.81376 86.16150 31695 ft 370 kts 270°
2026-04-21 09:24 22.81825 86.10591 31692 ft 370 kts 271°
2026-04-21 09:24 22.82310 86.05039 31698 ft 370 kts 271°
2026-04-21 09:25 22.82775 85.99574 31712 ft 369 kts 271°
2026-04-21 09:25 22.83236 85.94024 31724 ft 369 kts 271°
2026-04-21 09:26 22.83691 85.88481 31739 ft 369 kts 271°
2026-04-21 09:26 22.84144 85.82935 31767 ft 369 kts 271°
2026-04-21 09:27 22.84595 85.77390 31780 ft 369 kts 271°
2026-04-21 09:27 22.85043 85.71848 31801 ft 369 kts 271°
2026-04-21 09:28 22.85489 85.66308 31792 ft 369 kts 271°
2026-04-21 09:28 22.85930 85.60817 31803 ft 368 kts 271°
2026-04-21 09:29 22.86371 85.55289 31814 ft 368 kts 271°
2026-04-21 09:29 22.86811 85.49754 31812 ft 368 kts 271°
2026-04-21 09:30 22.87250 85.44218 31812 ft 368 kts 271°
2026-04-21 09:30 22.87686 85.38679 31828 ft 368 kts 270°
2026-04-21 09:31 22.88120 85.33146 31825 ft 368 kts 271°
2026-04-21 09:31 22.88553 85.27605 31821 ft 369 kts 271°
2026-04-21 09:32 22.88984 85.22064 31825 ft 369 kts 270°
2026-04-21 09:32 22.89413 85.16526 31826 ft 368 kts 270°
2026-04-21 09:33 22.89840 85.10985 31818 ft 368 kts 270°
2026-04-21 09:33 22.90263 85.05490 31832 ft 368 kts 270°
2026-04-21 09:34 22.90685 84.99978 31833 ft 367 kts 270°
2026-04-21 09:34 22.91100 84.94539 31816 ft 366 kts 270°
2026-04-21 09:35 22.91450 84.89937 31822 ft 365 kts 270°
2026-04-21 09:35 22.91861 84.84500 31824 ft 364 kts 270°
2026-04-21 09:36 22.92273 84.79027 31813 ft 364 kts 270°
2026-04-21 09:36 22.92682 84.73553 31814 ft 364 kts 270°
2026-04-21 09:37 22.93091 84.68078 31818 ft 364 kts 270°
2026-04-21 09:37 22.93498 84.62594 31803 ft 365 kts 270°
2026-04-21 09:38 22.93903 84.57110 31805 ft 364 kts 270°
2026-04-21 09:38 22.94306 84.51629 31806 ft 364 kts 270°
2026-04-21 09:39 22.94704 84.46195 31808 ft 364 kts 270°
2026-04-21 09:39 22.95102 84.40722 31807 ft 364 kts 270°
2026-04-21 09:40 22.95499 84.35248 31785 ft 364 kts 270°
2026-04-21 09:40 22.95894 84.29778 31798 ft 363 kts 270°
2026-04-21 09:41 22.96286 84.24316 31799 ft 363 kts 269°
2026-04-21 09:41 22.96677 84.18847 31779 ft 363 kts 269°
2026-04-21 09:42 22.97066 84.13386 31780 ft 363 kts 269°
2026-04-21 09:42 22.97396 84.07926 31783 ft 362 kts 268°
2026-04-21 09:43 22.97681 84.02520 31776 ft 362 kts 268°
2026-04-21 09:43 22.97963 83.97158 31770 ft 361 kts 268°
2026-04-21 09:44 22.98251 83.91720 31786 ft 361 kts 268°
2026-04-21 09:44 22.98542 83.86274 31767 ft 362 kts 268°
2026-04-21 09:45 22.98833 83.80821 31769 ft 363 kts 268°
2026-04-21 09:45 22.99120 83.75388 31773 ft 363 kts 268°
2026-04-21 09:46 22.99409 83.69899 31757 ft 364 kts 268°
2026-04-21 09:46 22.99695 83.64420 31769 ft 364 kts 268°
2026-04-21 09:47 22.99979 83.58938 31748 ft 363 kts 268°
2026-04-21 09:47 23.00261 83.53470 31748 ft 362 kts 268°
2026-04-21 09:48 23.00540 83.48023 31745 ft 361 kts 268°
2026-04-21 09:48 23.00817 83.42579 31739 ft 361 kts 268°
2026-04-21 09:49 23.01091 83.37149 31731 ft 360 kts 268°
2026-04-21 09:49 23.01363 83.31716 31738 ft 360 kts 268°
2026-04-21 09:50 23.01544 83.28074 31720 ft 361 kts 268°
2026-04-21 09:50 23.01902 83.20831 31721 ft 361 kts 268°
2026-04-21 09:51 23.02170 83.15378 31706 ft 361 kts 268°
2026-04-21 09:51 23.02436 83.09924 31704 ft 362 kts 268°
2026-04-21 09:52 23.02700 83.04465 31702 ft 362 kts 268°
2026-04-21 09:52 23.02958 82.99101 31696 ft 363 kts 268°
2026-04-21 09:53 23.03219 82.93633 31692 ft 363 kts 268°
2026-04-21 09:53 23.03477 82.88198 31694 ft 363 kts 268°
2026-04-21 09:54 23.03734 82.82725 31690 ft 363 kts 268°
2026-04-21 09:54 23.03989 82.77258 31690 ft 363 kts 268°
2026-04-21 09:55 23.04243 82.71791 31685 ft 363 kts 267°
2026-04-21 09:55 23.04495 82.66322 31687 ft 363 kts 268°
2026-04-21 09:56 23.04744 82.60858 31695 ft 362 kts 268°
2026-04-21 09:56 23.04992 82.55396 31696 ft 362 kts 268°
2026-04-21 09:57 23.05237 82.49937 31697 ft 362 kts 268°
2026-04-21 09:57 23.05481 82.44473 31701 ft 362 kts 268°
2026-04-21 09:58 23.05723 82.39011 31704 ft 362 kts 267°
2026-04-21 09:58 23.05962 82.33550 31703 ft 362 kts 267°
2026-04-21 09:59 23.06199 82.28121 31702 ft 362 kts 267°
2026-04-21 09:59 23.06436 82.22660 31703 ft 362 kts 267°
2026-04-21 10:00 23.06670 82.17207 31708 ft 361 kts 267°
2026-04-21 10:00 23.06968 82.11751 31707 ft 362 kts 268°
2026-04-21 10:01 23.07322 82.06293 31707 ft 362 kts 268°
2026-04-21 10:01 23.07671 82.00839 31708 ft 362 kts 268°
2026-04-21 10:02 23.08176 81.92740 31724 ft 362 kts 268°
2026-04-21 10:03 23.08511 81.87277 31724 ft 362 kts 268°
2026-04-21 10:03 23.08844 81.81815 31722 ft 362 kts 268°
2026-04-21 10:04 23.09173 81.76385 31734 ft 362 kts 268°
2026-04-21 10:04 23.09501 81.70933 31728 ft 362 kts 268°
2026-04-21 10:05 23.09828 81.65472 31749 ft 362 kts 268°
2026-04-21 10:05 23.10153 81.60021 31738 ft 361 kts 268°
2026-04-21 10:06 23.10475 81.54573 31739 ft 361 kts 268°
2026-04-21 10:06 23.10795 81.49136 31746 ft 360 kts 268°
2026-04-21 10:07 23.11112 81.43717 31750 ft 359 kts 268°
2026-04-21 10:07 23.11427 81.38303 31749 ft 359 kts 268°
2026-04-21 10:08 23.11738 81.32922 31762 ft 359 kts 268°
2026-04-21 10:08 23.12048 81.27511 31772 ft 359 kts 268°
2026-04-21 10:09 23.12358 81.22089 31762 ft 360 kts 268°
2026-04-21 10:09 23.12656 81.16679 31780 ft 356 kts 268°
2026-04-21 10:10 23.12964 81.11290 31770 ft 358 kts 268°
2026-04-21 10:10 23.13277 81.05888 31757 ft 359 kts 268°
2026-04-21 10:11 23.13576 81.00466 31759 ft 360 kts 269°
2026-04-21 10:11 23.13871 80.95122 31778 ft 360 kts 268°
2026-04-21 10:12 23.14170 80.89688 31787 ft 360 kts 268°
2026-04-21 10:12 23.14466 80.84284 31779 ft 361 kts 268°
2026-04-21 10:13 23.14763 80.78838 31791 ft 361 kts 269°
2026-04-21 10:13 23.15059 80.73386 31786 ft 361 kts 269°
2026-04-21 10:14 23.15357 80.67939 31811 ft 360 kts 269°
2026-04-21 10:14 23.15653 80.62504 31791 ft 360 kts 269°
2026-04-21 10:15 23.15945 80.57072 31793 ft 360 kts 269°
2026-04-21 10:15 23.16234 80.51652 31797 ft 360 kts 269°
2026-04-21 10:16 23.16523 80.46222 31799 ft 360 kts 269°
2026-04-21 10:16 23.16810 80.40777 31796 ft 361 kts 269°
2026-04-21 10:17 23.17095 80.35355 31801 ft 362 kts 269°
2026-04-21 10:17 23.17381 80.29877 31803 ft 363 kts 269°
2026-04-21 10:18 23.17665 80.24397 31802 ft 363 kts 269°
2026-04-21 10:18 23.17948 80.18912 31802 ft 363 kts 269°
2026-04-21 10:19 23.18229 80.13419 31795 ft 364 kts 269°
2026-04-21 10:19 23.18508 80.07930 31802 ft 364 kts 269°
2026-04-21 10:20 23.18770 80.02430 31807 ft 365 kts 269°
2026-04-21 10:20 23.19001 79.97054 31802 ft 365 kts 269°
2026-04-21 10:21 23.19237 79.91535 31800 ft 366 kts 269°
2026-04-21 10:21 23.19474 79.86016 31801 ft 366 kts 269°
2026-04-21 10:22 23.19709 79.80495 31802 ft 366 kts 269°
2026-04-21 10:22 23.19904 79.75899 31800 ft 366 kts 269°
2026-04-21 10:23 23.20137 79.70365 31798 ft 367 kts 269°
2026-04-21 10:23 23.20369 79.64811 31796 ft 368 kts 269°
2026-04-21 10:24 23.20599 79.59256 31795 ft 368 kts 269°
2026-04-21 10:24 23.20790 79.53685 31795 ft 368 kts 268°
2026-04-21 10:25 23.20887 79.48122 31798 ft 368 kts 268°
2026-04-21 10:25 23.20978 79.42555 31786 ft 368 kts 268°
2026-04-21 10:26 23.21075 79.36989 31797 ft 368 kts 268°
2026-04-21 10:26 23.21174 79.31413 31804 ft 370 kts 268°
2026-04-21 10:27 23.21273 79.25817 31797 ft 371 kts 268°
2026-04-21 10:27 23.21370 79.20244 31796 ft 372 kts 268°
2026-04-21 10:28 23.21465 79.14622 31793 ft 372 kts 268°
2026-04-21 10:28 23.21560 79.08964 31796 ft 372 kts 268°
2026-04-21 10:29 23.21651 79.03382 31788 ft 372 kts 268°
2026-04-21 10:29 23.21739 78.97850 31796 ft 371 kts 268°
2026-04-21 10:30 23.21827 78.92231 31796 ft 371 kts 268°
2026-04-21 10:30 23.21913 78.86614 31793 ft 371 kts 268°
2026-04-21 10:31 23.21997 78.81011 31795 ft 371 kts 268°
2026-04-21 10:31 23.22079 78.75395 31782 ft 371 kts 268°
2026-04-21 10:32 23.22242 78.69780 31789 ft 372 kts 270°
2026-04-21 10:32 23.22534 78.64168 31781 ft 372 kts 270°
2026-04-21 10:33 23.22826 78.58546 31785 ft 372 kts 270°
2026-04-21 10:33 23.23103 78.52923 31785 ft 373 kts 270°
2026-04-21 10:34 23.23370 78.47328 31782 ft 373 kts 270°
2026-04-21 10:34 23.23634 78.41701 31783 ft 373 kts 270°
2026-04-21 10:35 23.23897 78.36032 31783 ft 373 kts 270°
2026-04-21 10:35 23.24155 78.30441 31781 ft 373 kts 270°
2026-04-21 10:36 23.24412 78.24814 31777 ft 373 kts 270°
2026-04-21 10:36 23.24668 78.19178 31777 ft 373 kts 270°
2026-04-21 10:37 23.24921 78.13551 31775 ft 373 kts 270°
2026-04-21 10:37 23.25172 78.07927 31775 ft 373 kts 270°
2026-04-21 10:38 23.25422 78.02297 31787 ft 372 kts 270°
2026-04-21 10:38 23.25664 77.96771 31776 ft 372 kts 270°
2026-04-21 10:39 23.25910 77.91146 31781 ft 373 kts 270°
2026-04-21 10:39 23.26153 77.85517 31784 ft 373 kts 270°
2026-04-21 10:40 23.26393 77.79917 31785 ft 374 kts 270°
2026-04-21 10:40 23.26634 77.74261 31788 ft 374 kts 270°
2026-04-21 10:41 23.26872 77.68588 31782 ft 376 kts 270°
2026-04-21 10:41 23.27111 77.62903 31781 ft 377 kts 270°
2026-04-21 10:42 23.27347 77.57214 31775 ft 377 kts 272°
2026-04-21 10:42 23.27582 77.51502 31794 ft 379 kts 271°
2026-04-21 10:43 23.27815 77.45769 31792 ft 380 kts 271°
2026-04-21 10:43 23.28048 77.40004 31792 ft 382 kts 271°
2026-04-21 10:44 23.28355 77.34238 31783 ft 383 kts 277°
2026-04-21 10:44 23.29753 77.28678 31794 ft 384 kts 286°
2026-04-21 10:45 23.31451 77.23161 31790 ft 384 kts 286°
2026-04-21 10:45 23.33129 77.17639 31788 ft 384 kts 287°
2026-04-21 10:46 23.34800 77.12106 31784 ft 385 kts 287°
2026-04-21 10:46 23.36470 77.06546 31797 ft 387 kts 287°
2026-04-21 10:47 23.38139 77.00974 31794 ft 388 kts 287°
2026-04-21 10:47 23.39782 76.95481 31790 ft 388 kts 287°
2026-04-21 10:48 23.41445 76.89915 31797 ft 388 kts 287°
2026-04-21 10:48 23.43114 76.84316 31781 ft 389 kts 289°
2026-04-21 10:49 23.44784 76.78708 31801 ft 390 kts 289°
2026-04-21 10:49 23.46459 76.73078 31804 ft 392 kts 289°
2026-04-21 10:50 23.48142 76.67411 31806 ft 394 kts 289°
2026-04-21 10:50 23.49829 76.61718 31808 ft 396 kts 290°
2026-04-21 10:51 23.51523 76.56001 31814 ft 397 kts 290°
2026-04-21 10:51 23.53216 76.50277 31808 ft 397 kts 291°
2026-04-21 10:52 23.54908 76.44544 31815 ft 397 kts 291°
2026-04-21 10:52 23.56598 76.38810 31817 ft 397 kts 291°
2026-04-21 10:53 23.58279 76.33101 31826 ft 398 kts 291°
2026-04-21 10:53 23.59966 76.27359 31833 ft 398 kts 291°
2026-04-21 10:54 23.61651 76.21616 31828 ft 398 kts 291°
2026-04-21 10:54 23.63333 76.15875 31838 ft 397 kts 291°
2026-04-21 10:55 23.65013 76.10133 31833 ft 397 kts 291°
2026-04-21 10:55 23.66690 76.04395 31851 ft 397 kts 291°
2026-04-21 10:56 23.68343 75.98727 31848 ft 398 kts 291°
2026-04-21 10:56 23.70009 75.92966 31849 ft 398 kts 291°
2026-04-21 10:57 23.71672 75.87197 31861 ft 399 kts 291°
2026-04-21 10:57 23.73335 75.81418 31869 ft 399 kts 291°
2026-04-21 10:58 23.74995 75.75646 31851 ft 398 kts 291°
2026-04-21 10:58 23.76639 75.69921 31861 ft 397 kts 291°
2026-04-21 10:59 23.78291 75.64161 31858 ft 397 kts 291°
2026-04-21 10:59 23.79938 75.58410 31864 ft 397 kts 291°
2026-04-21 11:00 23.81582 75.52659 31862 ft 396 kts 291°
2026-04-21 11:00 23.83222 75.46911 31866 ft 396 kts 291°
2026-04-21 11:01 23.84862 75.41159 31850 ft 396 kts 291°
2026-04-21 11:01 23.86488 75.35445 31865 ft 396 kts 291°
2026-04-21 11:02 23.88938 75.26818 31870 ft 396 kts 291°
2026-04-21 11:02 23.90570 75.21063 31877 ft 397 kts 291°
2026-04-21 11:03 23.92201 75.15299 31859 ft 397 kts 291°
2026-04-21 11:03 23.93828 75.09539 31864 ft 397 kts 291°
2026-04-21 11:04 23.95453 75.03777 31852 ft 397 kts 291°
2026-04-21 11:04 23.97048 74.98116 31865 ft 396 kts 291°
2026-04-21 11:05 23.98663 74.92370 31857 ft 394 kts 291°
2026-04-21 11:05 24.00255 74.86702 31856 ft 392 kts 291°
2026-04-21 11:06 24.01855 74.80994 31858 ft 391 kts 291°
2026-04-21 11:06 24.03446 74.75310 31855 ft 391 kts 291°
2026-04-21 11:07 24.05123 74.69663 31860 ft 390 kts 292°
2026-04-21 11:07 24.06887 74.64041 31848 ft 391 kts 293°
2026-04-21 11:08 24.08646 74.58410 31850 ft 391 kts 292°
2026-04-21 11:08 24.10099 74.53719 31847 ft 392 kts 292°
2026-04-21 11:09 24.11844 74.48061 31842 ft 392 kts 292°
2026-04-21 11:09 24.13873 74.41469 31845 ft 393 kts 292°
2026-04-21 11:10 24.15320 74.36758 31849 ft 393 kts 292°
2026-04-21 11:10 24.17058 74.31095 31832 ft 392 kts 292°
2026-04-21 11:11 24.18795 74.25428 31846 ft 392 kts 292°
2026-04-21 11:11 24.20527 74.19769 31845 ft 391 kts 292°
2026-04-21 11:12 24.22259 74.14113 31832 ft 391 kts 292°
2026-04-21 11:12 24.24013 74.08488 31844 ft 390 kts 292°
2026-04-21 11:13 24.25771 74.02872 31843 ft 389 kts 292°
2026-04-21 11:13 24.27484 73.97381 31833 ft 389 kts 292°
2026-04-21 11:14 24.29231 73.91769 31845 ft 389 kts 292°
2026-04-21 11:14 24.30981 73.86136 31846 ft 391 kts 292°
2026-04-21 11:15 24.32734 73.80485 31847 ft 391 kts 292°
2026-04-21 11:15 24.34486 73.74825 31844 ft 392 kts 292°
2026-04-21 11:16 24.36241 73.69148 31845 ft 392 kts 292°
2026-04-21 11:16 24.37979 73.63520 31847 ft 392 kts 292°
2026-04-21 11:17 24.39727 73.57848 31850 ft 392 kts 292°
2026-04-21 11:17 24.41472 73.52182 31856 ft 392 kts 292°
2026-04-21 11:18 24.43216 73.46507 31851 ft 392 kts 292°
2026-04-21 11:18 24.44958 73.40831 31855 ft 392 kts 292°
2026-04-21 11:19 24.46695 73.35161 31854 ft 392 kts 292°
2026-04-21 11:19 24.48431 73.29490 31841 ft 392 kts 292°
2026-04-21 11:20 24.50169 73.23802 31853 ft 393 kts 292°
2026-04-21 11:20 24.51906 73.18106 31848 ft 394 kts 292°
2026-04-21 11:21 24.53636 73.12427 31844 ft 394 kts 292°
2026-04-21 11:21 24.55374 73.06712 31844 ft 395 kts 292°
2026-04-21 11:22 24.57114 73.00983 31836 ft 395 kts 292°
2026-04-21 11:22 24.58814 72.95376 31841 ft 395 kts 292°
2026-04-21 11:23 24.60545 72.89658 31825 ft 394 kts 291°
2026-04-21 11:23 24.62272 72.83945 31834 ft 394 kts 291°
2026-04-21 11:24 24.63996 72.78237 31843 ft 393 kts 291°
2026-04-21 11:24 24.65713 72.72539 31825 ft 392 kts 291°
2026-04-21 11:25 24.67423 72.66854 31818 ft 391 kts 291°
2026-04-21 11:25 24.69126 72.61188 31818 ft 389 kts 291°
2026-04-21 11:26 24.70821 72.55538 31812 ft 389 kts 291°
2026-04-21 11:26 24.72514 72.49886 31809 ft 389 kts 290°
2026-04-21 11:27 24.74209 72.44222 31816 ft 390 kts 290°
2026-04-21 11:27 24.75895 72.38575 31805 ft 392 kts 290°
2026-04-21 11:28 24.77606 72.32837 31801 ft 393 kts 290°
2026-04-21 11:28 24.79296 72.27163 31801 ft 393 kts 290°
2026-04-21 11:29 24.80996 72.21444 31795 ft 392 kts 290°
2026-04-21 11:29 24.82691 72.15732 31792 ft 392 kts 290°
2026-04-21 11:30 24.84378 72.10036 31786 ft 391 kts 290°
2026-04-21 11:30 24.86058 72.04359 31792 ft 389 kts 290°
2026-04-21 11:31 24.87691 71.98830 31779 ft 387 kts 290°
2026-04-21 11:31 24.89351 71.93203 31778 ft 386 kts 290°
2026-04-21 11:32 24.91005 71.87588 31770 ft 385 kts 290°
2026-04-21 11:32 24.92654 71.81982 31781 ft 385 kts 290°
2026-04-21 11:33 24.94302 71.76370 31778 ft 386 kts 290°
2026-04-21 11:33 24.95955 71.70733 31779 ft 387 kts 290°
2026-04-21 11:34 24.97608 71.65085 31768 ft 388 kts 290°
2026-04-21 11:34 24.99263 71.59421 31768 ft 388 kts 290°
2026-04-21 11:35 25.00917 71.53753 31759 ft 389 kts 289°
2026-04-21 11:35 25.02561 71.48110 31766 ft 389 kts 289°
2026-04-21 11:36 25.04211 71.42436 31769 ft 389 kts 289°
2026-04-21 11:36 25.05862 71.36754 31773 ft 388 kts 289°
2026-04-21 11:37 25.07502 71.31096 31756 ft 387 kts 289°
2026-04-21 11:37 25.09134 71.25459 31755 ft 384 kts 289°
2026-04-21 11:38 25.10751 71.19864 31759 ft 382 kts 289°
2026-04-21 11:38 25.12362 71.14282 31758 ft 381 kts 289°
2026-04-21 11:39 25.13968 71.08709 31759 ft 381 kts 289°
2026-04-21 11:39 25.15572 71.03134 31757 ft 382 kts 289°
2026-04-21 11:40 25.17157 70.97616 31761 ft 383 kts 289°
2026-04-21 11:40 25.18766 70.92008 31759 ft 384 kts 289°
2026-04-21 11:41 25.20365 70.86423 31749 ft 385 kts 289°
2026-04-21 11:41 25.21977 70.80787 31757 ft 385 kts 289°
2026-04-21 11:42 25.23614 70.75145 31756 ft 386 kts 289°
2026-04-21 11:42 25.25273 70.69509 31753 ft 386 kts 289°
2026-04-21 11:43 25.26927 70.63875 31760 ft 385 kts 289°
2026-04-21 11:43 25.28567 70.58268 31750 ft 383 kts 289°
2026-04-21 11:44 25.30195 70.52687 31740 ft 380 kts 289°
2026-04-21 11:44 25.31812 70.47139 31750 ft 379 kts 289°
2026-04-21 11:45 25.33424 70.41597 31753 ft 379 kts 289°
2026-04-21 11:45 25.35036 70.36048 31752 ft 379 kts 289°
2026-04-21 11:46 25.36649 70.30487 31754 ft 381 kts 289°
2026-04-21 11:46 25.38266 70.24900 31749 ft 382 kts 289°
2026-04-21 11:47 25.39886 70.19297 31739 ft 383 kts 289°
2026-04-21 11:47 25.41507 70.13679 31745 ft 383 kts 289°
2026-04-21 11:48 25.43115 70.08100 31748 ft 384 kts 289°
2026-04-21 11:48 25.44735 70.02466 31745 ft 384 kts 289°
2026-04-21 11:49 25.46322 69.96944 31753 ft 383 kts 288°
2026-04-21 11:49 25.47927 69.91344 31735 ft 381 kts 288°
2026-04-21 11:50 25.49522 69.85776 31727 ft 378 kts 288°
2026-04-21 11:50 25.51106 69.80234 31737 ft 377 kts 288°
2026-04-21 11:51 25.51688 69.77411 31722 ft 379 kts 275°
2026-04-21 11:51 25.51505 69.74501 31741 ft 382 kts 260°
2026-04-21 11:51 25.50212 69.68774 31739 ft 385 kts 258°
2026-04-21 11:52 25.48856 69.63032 31736 ft 387 kts 258°
2026-04-21 11:52 25.47530 69.57293 31736 ft 388 kts 258°
2026-04-21 11:53 25.46209 69.51493 31726 ft 388 kts 258°
2026-04-21 11:53 25.44913 69.45798 31714 ft 373 kts 258°
2026-04-21 11:54 25.44288 69.43061 31706 ft 360 kts 258°
2026-04-21 11:54 25.43686 69.40421 31707 ft 348 kts 258°
2026-04-21 11:54 25.43106 69.37878 31707 ft 335 kts 258°
2026-04-21 11:54 25.42545 69.35419 31705 ft 323 kts 258°
2026-04-21 11:55 25.42004 69.33050 31516 ft 315 kts 259°
2026-04-21 11:55 25.41465 69.30682 30715 ft 324 kts 259°
2026-04-21 11:55 25.40901 69.28194 29746 ft 340 kts 259°
2026-04-21 11:55 25.40320 69.25642 29014 ft 343 kts 258°
2026-04-21 11:56 25.39737 69.23103 28516 ft 338 kts 258°
2026-04-21 11:56 25.39162 69.20600 28048 ft 333 kts 258°
2026-04-21 11:56 25.38597 69.18141 27693 ft 327 kts 258°
2026-04-21 11:56 25.38229 69.16538 27460 ft 323 kts 258°
2026-04-21 11:57 25.37680 69.14147 27129 ft 320 kts 257°
2026-04-21 11:57 25.37129 69.11744 26824 ft 325 kts 257°
2026-04-21 11:57 25.36565 69.09291 26453 ft 334 kts 257°
2026-04-21 11:57 25.35984 69.06765 25927 ft 341 kts 257°
2026-04-21 11:58 25.35397 69.04225 25518 ft 341 kts 257°
2026-04-21 11:58 25.34811 69.01689 25175 ft 340 kts 257°
2026-04-21 11:58 25.34244 68.99239 24850 ft 338 kts 257°
2026-04-21 11:58 25.33661 68.96722 24511 ft 337 kts 256°
2026-04-21 11:59 25.33080 68.94210 24168 ft 337 kts 256°
2026-04-21 11:59 25.32500 68.91709 23820 ft 336 kts 256°
2026-04-21 11:59 25.31920 68.89207 23481 ft 335 kts 256°
2026-04-21 11:59 25.31342 68.86715 23105 ft 335 kts 256°
2026-04-21 12:00 25.30764 68.84228 22744 ft 333 kts 256°
2026-04-21 12:00 25.30190 68.81757 22404 ft 331 kts 256°
2026-04-21 12:00 25.29618 68.79295 22057 ft 329 kts 256°
2026-04-21 12:00 25.29050 68.76858 21722 ft 327 kts 256°
2026-04-21 12:01 25.28486 68.74433 21391 ft 325 kts 256°
2026-04-21 12:01 25.27924 68.72025 21061 ft 323 kts 256°
2026-04-21 12:01 25.27366 68.69632 20748 ft 321 kts 257°
2026-04-21 12:01 25.26812 68.67255 20407 ft 319 kts 256°
2026-04-21 12:02 25.26264 68.64911 20103 ft 318 kts 257°
2026-04-21 12:02 25.25163 68.60200 19456 ft 315 kts 257°
2026-04-21 12:02 25.24614 68.57855 19135 ft 315 kts 256°
2026-04-21 12:03 25.24066 68.55518 18815 ft 314 kts 257°
2026-04-21 12:03 25.23519 68.53190 18495 ft 313 kts 256°
2026-04-21 12:03 25.22970 68.50857 18163 ft 313 kts 257°
2026-04-21 12:03 25.22424 68.48531 17807 ft 313 kts 256°
2026-04-21 12:04 25.21878 68.46208 17463 ft 311 kts 257°
2026-04-21 12:04 25.21334 68.43900 17143 ft 309 kts 256°
2026-04-21 12:04 25.20794 68.41611 16822 ft 307 kts 257°
2026-04-21 12:04 25.20257 68.39338 16507 ft 305 kts 256°
2026-04-21 12:05 25.19724 68.37075 16190 ft 303 kts 256°
2026-04-21 12:05 25.19194 68.34831 15886 ft 301 kts 256°
2026-04-21 12:05 25.18666 68.32594 15581 ft 300 kts 256°
2026-04-21 12:05 25.18146 68.30394 15281 ft 299 kts 256°
2026-04-21 12:06 25.17621 68.28177 14966 ft 298 kts 256°
2026-04-21 12:06 25.17098 68.25968 14666 ft 296 kts 256°
2026-04-21 12:06 25.16579 68.23776 14371 ft 295 kts 256°
2026-04-21 12:06 25.16059 68.21582 14047 ft 295 kts 256°
2026-04-21 12:07 25.15540 68.19397 13756 ft 294 kts 256°
2026-04-21 12:07 25.15021 68.17212 13401 ft 294 kts 256°
2026-04-21 12:07 25.14503 68.15030 13074 ft 293 kts 256°
2026-04-21 12:07 25.13987 68.12858 12751 ft 292 kts 256°
2026-04-21 12:08 25.13472 68.10694 12433 ft 291 kts 256°
2026-04-21 12:08 25.12958 68.08537 12129 ft 290 kts 256°
2026-04-21 12:08 25.12446 68.06387 11818 ft 289 kts 256°
2026-04-21 12:08 25.11935 68.04241 11513 ft 289 kts 256°
2026-04-21 12:09 25.11425 68.02103 11214 ft 288 kts 256°
2026-04-21 12:09 25.10917 67.99978 10900 ft 288 kts 256°
2026-04-21 12:09 25.10420 67.97895 10602 ft 288 kts 256°
2026-04-21 12:09 25.09909 67.95760 10272 ft 289 kts 256°
2026-04-21 12:10 25.09397 67.93615 9968 ft 289 kts 256°
2026-04-21 12:10 25.08883 67.91467 9658 ft 290 kts 256°
2026-04-21 12:10 25.08368 67.89317 9307 ft 290 kts 256°
2026-04-21 12:10 25.07860 67.87198 9005 ft 289 kts 256°
2026-04-21 12:11 25.07347 67.85058 8698 ft 288 kts 256°
2026-04-21 12:11 25.06835 67.82926 8384 ft 287 kts 256°
2026-04-21 12:11 25.06325 67.80801 8092 ft 286 kts 256°
2026-04-21 12:11 25.05816 67.78684 7793 ft 286 kts 256°
2026-04-21 12:12 25.05307 67.76567 7492 ft 285 kts 256°
2026-04-21 12:12 25.04800 67.74459 7309 ft 283 kts 256°
2026-04-21 12:12 25.04304 67.72402 7266 ft 272 kts 256°
2026-04-21 12:12 25.03830 67.70433 7243 ft 260 kts 256°
2026-04-21 12:13 25.03377 67.68554 7239 ft 248 kts 256°
2026-04-21 12:13 25.02946 67.66767 7252 ft 235 kts 256°
2026-04-21 12:13 25.02532 67.65055 7250 ft 229 kts 256°
2026-04-21 12:13 25.02121 67.63349 7271 ft 234 kts 256°
2026-04-21 12:14 25.01701 67.61610 7159 ft 236 kts 256°
2026-04-21 12:14 25.01274 67.59830 6730 ft 242 kts 256°
2026-04-21 12:14 25.00837 67.57998 6209 ft 249 kts 256°
2026-04-21 12:14 25.00395 67.56151 5823 ft 249 kts 256°
2026-04-21 12:15 24.99956 67.54315 5468 ft 246 kts 255°
2026-04-21 12:15 24.99529 67.52527 5141 ft 243 kts 255°
2026-04-21 12:15 24.99092 67.50701 4768 ft 243 kts 255°
2026-04-21 12:15 24.98668 67.48933 4416 ft 241 kts 255°
2026-04-21 12:16 24.98243 67.47162 4124 ft 236 kts 255°
2026-04-21 12:16 24.97828 67.45435 3877 ft 230 kts 255°
2026-04-21 12:16 24.97429 67.43786 3745 ft 214 kts 255°
2026-04-21 12:16 24.97057 67.42264 3622 ft 200 kts 255°
2026-04-21 12:17 24.96701 67.40805 3400 ft 195 kts 255°
2026-04-21 12:17 24.96353 67.39387 3240 ft 184 kts 255°
2026-04-21 12:17 24.96031 67.38065 3041 ft 179 kts 255°
2026-04-21 12:17 24.95708 67.36746 2862 ft 177 kts 254°
2026-04-21 12:18 24.95384 67.35434 2678 ft 176 kts 255°
2026-04-21 12:18 24.95062 67.34117 2483 ft 179 kts 255°
2026-04-21 12:18 24.94737 67.32809 2262 ft 174 kts 255°
2026-04-21 12:18 24.94417 67.31537 2094 ft 171 kts 254°
2026-04-21 12:19 24.94096 67.30271 2043 ft 177 kts 255°
2026-04-21 12:19 24.93762 67.28947 1993 ft 178 kts 253°
2026-04-21 12:19 24.93434 67.27646 1899 ft 176 kts 254°
2026-04-21 12:19 24.93109 67.26360 1694 ft 172 kts 254°
2026-04-21 12:20 24.92793 67.25113 1466 ft 165 kts 253°
2026-04-21 12:20 24.92504 67.23964 1307 ft 146 kts 252°
2026-04-21 12:20 24.92250 67.22949 1096 ft 130 kts 252°
2026-04-21 12:20 24.92001 67.21972 939 ft 134 kts 252°
2026-04-21 12:21 24.91754 67.20987 795 ft 135 kts 253°
2026-04-21 12:21 24.91499 67.19979 589 ft 139 kts 252°
2026-04-21 12:21 24.91240 67.18960 411 ft 143 kts 255°
2026-04-21 12:21 24.90974 67.17918 248 ft 139 kts 256°
2026-04-21 12:22 24.90730 67.16912 110 ft 128 kts 254°
2026-04-21 12:22 24.90524 67.16093 103 ft 91 kts 255°
2026-04-21 12:22 24.90395 67.15583 103 ft 48 kts 254°
2026-04-21 12:22 24.90332 67.15334 103 ft 31 kts 255°
2026-04-21 12:23 24.90277 67.15113 102 ft 29 kts 253°
2026-04-21 12:23 24.90196 67.15080 102 ft 13 kts 118°
2026-04-21 12:23 24.90170 67.15184 101 ft 15 kts 104°
2026-04-21 12:23 24.90140 67.15311 100 ft 19 kts 104°
2026-04-21 12:24 24.90157 67.15438 99 ft 13 kts 75°
2026-04-21 12:24 24.90183 67.15543 100 ft 16 kts 75°
2026-04-21 12:24 24.90214 67.15666 100 ft 18 kts 74°
2026-04-21 12:24 24.90252 67.15811 101 ft 21 kts 74°
2026-04-21 12:25 24.90294 67.15975 101 ft 24 kts 74°
2026-04-21 12:25 24.90339 67.16157 101 ft 26 kts 75°
2026-04-21 12:25 24.90383 67.16331 100 ft 23 kts 74°
2026-04-21 12:25 24.90427 67.16504 99 ft 25 kts 74°
2026-04-21 12:26 24.90472 67.16685 100 ft 22 kts 74°
2026-04-21 12:26 24.90516 67.16856 101 ft 24 kts 74°
2026-04-21 12:26 24.90543 67.16991 101 ft 16 kts 99°
2026-04-21 12:26 24.90477 67.17046 100 ft 10 kts 164°
2026-04-21 12:27 24.90399 67.17070 100 ft 12 kts 164°
2026-04-21 12:27 24.90347 67.17086 100 ft 1 kts 165°
2026-04-21 12:27 24.90334 67.17090 100 ft 3 kts 165°
2026-04-21 12:27 24.90306 67.17087 100 ft 5 kts 226°
2026-04-21 12:28 24.90293 67.17047 100 ft 6 kts 247°
2026-04-21 12:28 24.90284 67.17025 100 ft 1 kts 245°
2026-04-21 12:28 24.90279 67.17014 100 ft 1 kts 245°
2026-04-21 12:28 24.90275 67.17004 99 ft 0 kts 245°